Location: Gensac
(43.2177°N, 1.1313°E)
Time: 15:27:58
(UTC+00:00)

CBERS-1 - Pass Details

Date: 08 December 2025
Orbit: 764 x 773 km, 98.8° (Epoch: 19 January)

Event Time Altitude Azimuth Distance (km) Brightness Sun altitude
Rises 06:27:36 0° 8° (N) 3,251 7.1 -8.5°
Reaches altitude 10° 06:29:58 10° 3° (N) 2,319 6.3 -8.1°
Maximum altitude 06:34:52 49° 290° (WNW) 984 4.2 -7.3°
Drops below altitude 10° 06:39:44 10° 216° (SW) 2,298 6.4 -6.5°
Sets 06:42:05 0° 211° (SSW) 3,219 7.2 -6.1°
